Boone, NC

6:08 AM EDT on March 27, 2017 (GMT -0400)
Boone

Weather History for KTNB - February, 2014

Change the Weather History Date:

Tuesday, February 25, 2014

  Actual Average (KGEV) Record (KGEV)
Temperature  
Mean Temperature 35 °F -  
Max Temperature 42 °F 47 °F 64 °F (1976)
Min Temperature 29 °F 27 °F -6 °F (1967)
Degree Days  
Heating Degree Days 30    
Moisture  
Dew Point 14 °F    
Average Humidity 40    
Maximum Humidity 58    
Minimum Humidity 29    
Precipitation  
Precipitation 0.00 in - - ()
Sea Level Pressure  
Sea Level Pressure 29.96 in    
Wind  
Wind Speed 7 mph (WNW)    
Max Wind Speed 24 mph    
Max Gust Speed 36 mph    
Visibility 10 miles    
Events      
Averages and records for this station are not official NWS values.
T = Trace of Precipitation, MM = Missing Value Source: NWS Daily Summary

Daily Weather History Graph

Daily Weather History Graph

Search for Another Location

Airport or City:

Trip Planner

Search our weather history database for the weather conditions in past years. The results will help you decide how hot, cold, wet, or windy it might be!

Date:

Astronomy

Feb. 25, 2014 Rise Set
Actual Time 7:02 AM EST 6:17 PM EST
Civil Twilight 6:36 AM EST 6:43 PM EST
Nautical Twilight 6:06 AM EST 7:13 PM EST
Astronomical Twilight 5:36 AM EST 7:43 PM EST
Moon 3:50 AM EST (2/25) 2:26 PM EST (2/25)
Length of Visible Light 12h 07m
Length of Day
11h 15m
Waning Crescent, 18% of the Moon is Illuminated
Feb 25
Waning Crescent
Mar 1
New
Mar 8
First Quarter
Mar 16
Full
Mar 23
Last Quarter

Hourly Weather History & Observations

Time (EST) Temp. Windchill Dew Point Humidity Pressure Visibility Wind Dir Wind Speed Gust Speed Precip Events Conditions
12:15 AM 32.9 °F - 9.0 °F 37% 30.04 in 10.0 mi Calm Calm - N/A   Clear
12:35 AM 32.0 °F - 9.5 °F 39% 30.03 in 10.0 mi Calm Calm - N/A   Clear
12:55 AM 31.5 °F - 10.9 °F 43% 30.03 in 10.0 mi Calm Calm - N/A   Clear
1:15 AM 29.3 °F - 15.1 °F 55% 30.03 in 10.0 mi Calm Calm - N/A   Clear
1:35 AM 30.6 °F - 14.0 °F 50% 30.03 in 10.0 mi Calm Calm - N/A   Clear
1:55 AM 29.7 °F - 16.3 °F 58% 30.02 in 10.0 mi Calm Calm - N/A   Scattered Clouds
2:15 AM 30.9 °F - 14.0 °F 50% 30.01 in 10.0 mi Calm Calm - N/A   Clear
2:30 AM 31.1 °F - 14.0 °F 49% 30.00 in 10.0 mi Calm Calm - N/A   Clear
2:55 AM 32.7 °F - 15.1 °F 48% 29.99 in 10.0 mi Calm Calm - N/A   Scattered Clouds
3:15 AM 33.8 °F - 16.3 °F 49% 29.99 in 10.0 mi Calm Calm - N/A   Clear
4:55 AM 35.4 °F 30.5 °F 14.9 °F 43% 29.99 in 10.0 mi WNW 5.8 mph - N/A   Clear
5:15 AM 32.9 °F - 17.2 °F 53% 29.98 in 10.0 mi Calm Calm - N/A   Clear
5:35 AM 34.3 °F - 16.9 °F 49% 29.98 in 10.0 mi Calm Calm - N/A   Clear
5:55 AM 34.9 °F - 17.8 °F 50% 29.99 in 10.0 mi Calm Calm - N/A   Scattered Clouds
6:15 AM 35.8 °F - 17.4 °F 47% 29.99 in 10.0 mi Calm Calm - N/A   Mostly Cloudy
6:35 AM 36.5 °F - 16.9 °F 45% 29.99 in 10.0 mi Calm Calm - N/A   Overcast
6:55 AM 37.0 °F - 15.6 °F 42% 29.99 in 10.0 mi Calm Calm - N/A   Overcast
7:15 AM 39.2 °F 34.2 °F 14.9 °F 37% 29.99 in 10.0 mi West 6.9 mph - N/A   Overcast
7:35 AM 36.3 °F 32.5 °F 15.3 °F 42% 30.00 in 10.0 mi West 4.6 mph - N/A   Mostly Cloudy
7:55 AM 38.3 °F 33.9 °F 12.9 °F 35% 30.00 in 10.0 mi West 5.8 mph - N/A   Scattered Clouds
8:15 AM 37.6 °F 32.3 °F 12.2 °F 35% 30.00 in 10.0 mi West 6.9 mph - N/A   Scattered Clouds
8:35 AM 38.8 °F 32.1 °F 13.1 °F 35% 30.00 in 10.0 mi West 10.4 mph - N/A   Scattered Clouds
8:55 AM 39.4 °F 34.5 °F 13.8 °F 35% 29.99 in 10.0 mi West 6.9 mph - N/A   Scattered Clouds
9:15 AM 40.8 °F 36.2 °F 14.7 °F 35% 29.98 in 10.0 mi West 6.9 mph - N/A   Clear
9:35 AM 41.2 °F 35.5 °F 15.4 °F 35% 29.99 in 10.0 mi West 9.2 mph 17.3 mph N/A   Clear
9:55 AM 41.0 °F 32.8 °F 14.7 °F 34% 29.99 in 10.0 mi NW 16.1 mph 25.3 mph N/A   Scattered Clouds
10:15 AM 40.1 °F 29.9 °F 13.6 °F 34% 29.99 in 10.0 mi NW 23.0 mph 33.4 mph N/A   Clear
10:35 AM 39.9 °F 30.0 °F 12.6 °F 33% 29.98 in 10.0 mi NW 21.9 mph 27.6 mph N/A   Clear
10:50 AM 39.2 °F 29.6 °F 11.7 °F 32% 29.98 in 10.0 mi NW 19.6 mph 28.8 mph N/A   Clear
11:15 AM 38.8 °F 28.0 °F 11.3 °F 32% 29.98 in 10.0 mi WNW 24.2 mph 33.4 mph N/A   Clear
11:35 AM 39.4 °F 29.2 °F 11.1 °F 31% 29.97 in 10.0 mi WNW 21.9 mph 35.7 mph N/A   Clear
12:15 PM 39.9 °F 30.2 °F 10.2 °F 30% 29.97 in 10.0 mi WNW 20.7 mph 31.1 mph N/A   Clear
12:35 PM 40.1 °F 29.9 °F 10.2 °F 29% 29.96 in 10.0 mi WNW 23.0 mph 34.5 mph N/A   Clear
12:55 PM 40.1 °F 31.0 °F 10.2 °F 29% 29.95 in 10.0 mi WNW 18.4 mph 31.1 mph N/A   Clear
1:15 PM 40.6 °F 31.2 °F 11.5 °F 30% 29.94 in 10.0 mi NW 20.7 mph 34.5 mph N/A   Clear
1:35 PM 40.1 °F 30.2 °F 12.7 °F 33% 29.94 in 10.0 mi NW 21.9 mph 33.4 mph N/A   Clear
1:55 PM 40.3 °F 31.9 °F 12.9 °F 33% 29.93 in 10.0 mi NW 16.1 mph 32.2 mph N/A   Clear
2:15 PM 41.5 °F 34.2 °F 13.3 °F 32% 29.93 in 10.0 mi WNW 13.8 mph 25.3 mph N/A   Clear
2:35 PM 41.2 °F 32.7 °F 12.9 °F 32% 29.92 in 10.0 mi WNW 17.3 mph 27.6 mph N/A   Clear
2:55 PM 41.2 °F 32.4 °F 12.6 °F 31% 29.92 in 10.0 mi NW 18.4 mph 29.9 mph N/A   Clear
3:15 PM 41.0 °F 32.2 °F 12.7 °F 32% 29.92 in 10.0 mi WNW 18.4 mph 26.5 mph N/A   Clear
3:30 PM 41.2 °F 34.1 °F 12.7 °F 31% 29.92 in 10.0 mi WNW 12.7 mph 24.2 mph N/A   Clear
3:55 PM 40.8 °F 32.3 °F 13.1 °F 32% 29.92 in 10.0 mi WNW 17.3 mph 25.3 mph N/A   Clear
4:15 PM 39.6 °F 30.6 °F 13.1 °F 34% 29.91 in 10.0 mi WNW 17.3 mph 25.3 mph N/A   Clear
4:35 PM 39.9 °F 30.8 °F 13.6 °F 34% 29.91 in 10.0 mi WNW 18.4 mph 24.2 mph N/A   Clear
4:55 PM 39.0 °F 30.6 °F 13.5 °F 35% 29.91 in 10.0 mi WNW 15.0 mph 23.0 mph N/A   Clear
5:15 PM 38.3 °F 29.7 °F 14.0 °F 37% 29.91 in 10.0 mi WNW 15.0 mph 18.4 mph N/A   Clear
5:35 PM 37.6 °F 30.0 °F 13.8 °F 38% 29.91 in 10.0 mi WNW 11.5 mph 20.7 mph N/A   Clear
5:55 PM 37.2 °F 29.1 °F 14.4 °F 39% 29.92 in 10.0 mi West 12.7 mph 17.3 mph N/A   Clear
6:15 PM 36.1 °F 29.3 °F 14.5 °F 41% 29.92 in 10.0 mi West 9.2 mph - N/A   Clear
6:35 PM 35.6 °F 27.5 °F 14.5 °F 42% 29.93 in 10.0 mi West 11.5 mph - N/A   Clear
6:55 PM 35.1 °F 28.6 °F 14.5 °F 43% 29.93 in 10.0 mi West 8.1 mph 16.1 mph N/A   Clear
7:15 PM 34.7 °F 26.4 °F 14.5 °F 44% 29.94 in 10.0 mi West 11.5 mph 16.1 mph N/A   Clear
7:35 PM 34.3 °F 25.9 °F 14.7 °F 45% 29.94 in 10.0 mi West 11.5 mph 16.1 mph N/A   Clear
7:55 PM 34.9 °F 26.6 °F 14.5 °F 43% 29.96 in 10.0 mi West 11.5 mph - N/A   Clear
8:15 PM 34.3 °F 27.0 °F 14.7 °F 45% 29.96 in 10.0 mi West 9.2 mph - N/A   Clear
8:35 PM 34.7 °F 24.7 °F 14.7 °F 44% 29.94 in 10.0 mi WNW 16.1 mph 24.2 mph N/A   Clear
8:55 PM 34.7 °F 26.4 °F 15.1 °F 45% 29.94 in 10.0 mi West 11.5 mph 18.4 mph N/A   Clear
9:15 PM 35.1 °F 24.5 °F 15.1 °F 44% 29.93 in 10.0 mi West 18.4 mph 24.2 mph N/A   Clear
9:35 PM 34.7 °F 24.7 °F 14.9 °F 44% 29.93 in 10.0 mi West 16.1 mph - N/A   Clear
9:55 PM 34.7 °F 24.3 °F 14.9 °F 44% 29.93 in 10.0 mi West 17.3 mph 23.0 mph N/A   Clear
10:15 PM 34.5 °F 23.4 °F 14.9 °F 45% 29.92 in 10.0 mi West 19.6 mph 25.3 mph N/A   Clear
10:35 PM 34.2 °F 23.3 °F 14.5 °F 45% 29.92 in 10.0 mi WNW 18.4 mph 25.3 mph N/A   Clear
10:55 PM 33.8 °F 22.5 °F 14.4 °F 45% 29.91 in 10.0 mi West 19.6 mph 26.5 mph N/A   Clear
11:15 PM 33.8 °F 23.5 °F 13.8 °F 44% 29.91 in 10.0 mi West 16.1 mph 25.3 mph N/A   Clear
11:35 PM 33.3 °F 22.5 °F 13.5 °F 44% 29.90 in 10.0 mi West 17.3 mph 23.0 mph N/A   Clear
11:55 PM 33.1 °F 23.9 °F 13.3 °F 44% 29.89 in 10.0 mi West 12.7 mph 24.2 mph N/A   Clear